Погода в Медане

Индонезия     3°39′17″N   98°39′43″E
темп.,
°C
ветер,
м/с
пор.,
м/с
влажн.,
%
обл.,
%
осадки,
мм/ч
давл.,
гПа
погр.,
м
2 марта, вт
вт201:00+25зюз338624 0.1 1013159
04:00+24з23900 0.0 1010154
07:00+24з23891 0.0 1012130
10:00+29ссз116997 0.1 1013501
13:00+29ссв436984 0.1 1011682
16:00+29ссв45670 0.0 1008651
19:00+28ссв23730 0.0 1010301
22:00+27з22770 0.1 1011186
3 марта, ср
ср301:00+25зюз348517 0.1 1011137
04:00+25зюз238867 0.3 1010108
07:00+25юз338777 1.0 1011119
10:00+30ююз11637 1.5 1013527
13:00+30св435823 1.6 1011820
16:00+30всв456236 0.2 1008807
19:00+28всв237167 0.3 1010284
22:00+27ююз227644 0.1 1012127
4 марта, чт
чт401:00+25зюз228522 0.1 101285
04:00+25юз11860 0.0 101072
07:00+24ю23880 0.3 1012147
10:00+28вюв23683 0.0 1013616
13:00+30всв54651 0.0 1010683
16:00+30всв55680 0.0 1008599
19:00+28в47770 0.0 1010403
22:00+27ю12780 0.1 1012224
5 марта, пт
пт501:00+26юз228628 1.0 101178
04:00+25юз22890 0.1 100998
07:00+25ююз22882 0.1 1011125
10:00+29вюв34640 0.0 1013705
13:00+30всв55630 0.0 1010717
16:00+30всв56693 0.0 1008565
19:00+28всв347922 0.0 1010290
22:00+27всв128092 1.8 1012223
6 марта, сб
сб601:00+25зюз349196 3.0 1011133
04:00+25зюз2289100 0.5 101079
07:00+25юз2391100 0.8 1011110
10:00+30зюз116961 0.1 1013504
13:00+30ссв446875 1.4 1011655
16:00+30с5567100 0.1 1009630
19:00+28с467989 0.1 1010367
22:00+27зсз3483100 0.9 1012279